"Pseudo-MPEC" for A1099Ek

Created 2018 Oct 12 22:18:04 UT using Find_Orb

Click here for an explanation of pseudo-MPECs

 
 Astrometry: 
     A1099Ek  C2018 10 10stAstrometrye*,4Sevgh;_I5G\/:Ym8\l`OjFMd@lHVl23D*O*ST08
     A1099Ek  C2018 10 10+i'EN89@RheRo)La+RA;xxNfBX;f31/o12C#KdUm)-c2Y$qe3dxaT08
     A1099Ek  C2018 10 10PtsE!_2fo'Q[KT`icSrJp^]O/IOBg']q!1pVp(C?0NT5):$FHPqhT08
     A1099Ek  C2018 10 10TGwWvtD#1oYBe5mHXf2aAGj5%j]/aVQ#(MTr14Aj0-#U8jAy1hCFT08
     A1099Ek  C2018 10 11G4^VO:aEqisKFk]42'DsaH(8IS#kQ#8?aHnU/:My3REXiYDqWX%2T08
     A1099Ek  C2018 10 11qJ@NoqR.6mV*#@x*s1\iLQhw.,/h`B_db4Z3@h#gx-jr,tkq1/;]T08
     A1099Ek  C2018 10 11:)ZIii7OeP:'tn8qn%JgeyX\0BQG\Z[_I$PyD'mKEg@^]kQpB5AwT08
     A1099Ek  C2018 10 11L+?#RU^g;alk`6rS;rt50W'(/QJ'Al$mQwJ^SbKHJq90af#8llHJT08
     A1099Ek  C2018 10 11MP3%:FsmxJq\WZa%*Ysn@_fwwYDy]q)pP)dP*7w\bor?OYyYlr'gT08
     A1099Ek  C2018 10 11Wnd.Mba0ZjZdsx;W689Ra1K6EJI7BQ$SyC;L+6?lJ*@yw87kDSVpT08
     A1099Ek  C2018 10 11i!@mm=xqpw:fIh9?[cIU?RXnwVGTLj/G]d[N4XB[BCtbX7e3Wh?iT05
     A1099Ek  C2018 10 11\=y]KLMZM177Fe%%-Z:*#il5Z1HkSg4i*4L/`Tj3e[$eF]D-=_7tT05
     A1099Ek  C2018 10 11N]/bI1TyhF]Lm7OErredacted;-1rkUYbnq7v._W294e[ZH^`og,T05
     A1099Ek  C2018 10 11*fX7Q*(-dEU5\RC\7!n*5YeI\#/Q$P8b=JyHU\Us'e.==+y.,HluT05
     A1099Ek  C2018 10 11[WDq5.#m^;UUeT$tj3GKxUhoaB#GjoC%'AQpOTchoC4L!c=i0hg@T05
     A1099Ek  C2018 10 11W7[Sn(w%EGSov-XdVvbEc.?Rbt8s1sLYIw[%v(3k%@ICQy+vI*uUT08
     A1099Ek  C2018 10 11]);0nh\Nj_KeH.x9gr=1#pyrs]nO`+XUMCR!hlLnWN/hD[+U_!%^T05
     A1099Ek  C2018 10 11NyBBN\'`7w34*hvop-CM1qwp\L+A^=vfy#MjU:$_][5RQBuX^a)5T08
     A1099Ek IC2018 10 111cL]IG]-dYt=7!-F;e_xFt*RdTAnCRWo6MhZ-bwxc^DXJ)1p#;suL01
     A1099Ek KC2018 10 11g'[$Ilt_Mj2;KsWHqta;R1x=[U38N.%/%:4N,b33,yNWM_ZDYA:fL01
     A1099Ek KC2018 10 11,l)AHYv%^`*RN29jyLvxUTK:hJtc`o0CjX`J/?bI#;w5Tg4Z=f5KL01
     A1099Ek KC2018 10 11.90175801 47 17.31 +05 48 18.6          19.4 GVNEOCPJ95
     A1099Ek KC2018 10 11.90383301 47 17.19 +05 47 53.1          19.6 GVNEOCPJ95
     A1099Ek KC2018 10 11.90636901 47 17.06 +05 47 23.4          18.8 GVNEOCPJ95
     A1099Ek KC2018 10 118P9J40KDSpWmt@f\iiQf$_-8@$%UPq+ig/F!sKy'uVtov;,?*]_c106
     A1099Ek KC2018 10 11wlU=q4L!+2DLAj';p'Bk7p;heG-p^m3[9hRd#%ebk0ifTp'$w#p5106
     A1099Ek KC2018 10 11N1Wm2d=p1PRK?*ivcU^T?MAsxxuZHdb3AUE`s;q#GvB,frou1$:8106
     A1099Ek KC2018 10 12yg6U?25APQTLaSf4I77p44T,LO=PCVOdseel**XtKc%Z5f3U6l8-H21
     A1099Ek KC2018 10 12Zc425=P?:`n%RS/e'4N,n=M\r'rd?YEyw322QRkJ.-Ys4H!uHRjOH21
     A1099Ek KC2018 10 12%UI8TH5A4HLPTrRTBaV4P$6%tT'MEW,TZDb\4)q60Gj(TxJ;nOE*H21
     A1099Ek KC2018 10 12e$%t,,s=lMwji3$L*:\,^d`75!+o**J/YDo?=21D/!gBZ9'Nv3g`A17
     A1099Ek  C2018 10 12sXON=EXHy\1XZwwlbuUcbQwXLRE98qhF4g%6f;!DB[usM]I\14xg246
     A1099Ek  C2018 10 12l$?8=20hTWA6m-QH+M*G1=Jn=[(o#Nsvfj.QXb.5)x\j)*uW4!Xr246
     A1099Ek  C2018 10 12(nj=P_t$3qEWYv6B^%%\aJeEEvZ!T4s6(c.X#(\jy'GYW]U;4QW^246
     A1099Ek  C2018 10 12q#^m7_K2lSveS)!C\)jo:(JVD9-Vw$Y5Lpt(A-tN]u9jX:3:wW08246
     A1099Ek  C2018 10 12_4H^MUn%4M::wiBPpFgk_WISj+!(C;kSDGIht=\q`$i6u5#@N4D[246
     A1099Ek  C2018 10 12XfZDcu`.N*/u-QI%4telcVAR3bH`aZ(:Fki`qEcFRno1(iQO,ap^246
     A1099Ek  C2018 10 12t2vrWNbKtS;5-fZJ3f?\x!OP26!Kd3ia`Irh1w=?8RLY2wlxp(vq246
     A1099Ek KC2018 10 12.%uo#FZjiu*9Gs$D6C7hppGR=DOhS.j($G(88q3vd4oiX_2oM\?'A17
     A1099Ek KC2018 10 12][ZTcC3K3oO[wAMH.I3B?VUXBJ,YDg%!q_:Lj'usr;iu#m.NEOCPA17

Station data:
(106) Črni Vrh  (N45.945908 E14.071100)  Slovenia.  Observer J. Skvarč. 0.6-m
   f/3.3 Deltagraph + CCD.
(246) Klet Observatory-KLENOT  (N48.863293 E14.288100)  Czech Republic.
   1.06-m KLENOT telescope.
(A17) Guidestar Observatory, Weinheim  (N49.545393 E8.681520)  Germany.
(H21) Astronomical Research Observatory, Westfield  (N39.483057 W87.968270)
   US/Illinois. 0.76-m f/3.0 astrograph + CCD.
(J95) Great Shefford  (N51.474969 W1.447003)  UK.  Observer P. Birtwhistle.
   0.40-m f/6.0 Schmidt-Cassegrain + CCD.
(L01) Višnjan Observatory, Tičan  (N45.290900 E13.749300)  Croatia.  Observer
   K. Korlević. 1.0-m f/2.9 reflector + CCD.
(T05) ATLAS-HKO, Haleakala  (N20.707573 W156.257010)  US/Hawaii.  Observers
   L. Denneau, A. Heinze, H. Weiland, B. Stalder, J. Tonry, A. Sherstyuk.
   Measurers L. Denneau, A. Heinze, J. Tonry. 0.5-m f/2.0 Schmidt + CCD.
(T08) ATLAS-MLO, Mauna Loa  (N19.535772 W155.576400)  US/Hawaii.

Orbital elements:  A1099Ek
   Perihelion 2018 Aug 17.578355 +/- 0.0479 TT = 13:52:49 (JD 2458348.078355)
Epoch 2018 Oct 12.0 TT = JDT 2458403.5   Earth MOID: 0.0263   AutoNEOCP
M  25.84371 +/- 0.12                (J2000 ecliptic)
n   0.46631085 +/- 0.00189          Peri.  101.69390 +/- 0.011
a   1.64697002 +/- 0.00447          Node   197.60286 +/- 0.0014
e   0.5377702 +/- 0.00147           Incl.   14.61734 +/- 0.033
P   2.11/772.00d           H 24.4   G  0.15   U  8.5  
q 0.76127858 +/- 0.000354    Q 2.53266147 +/- 0.00926
From 40 observations 2018 Oct. 10-12; mean residual 0".46
Residuals in arcseconds: 
181010 T08  .75-  .72-    181011 T05  .76+  .69-    181012 H21  .23-  .02-    
181010 T08  1.2+  1.3+    181011 T08  .19+  .13-    181012 H21  .26-  .09-    
181010 T08  .38-  .93-    181011 T05  .61-  .41+    181012 A17  .75-  .56+    
181010 T08  .12+  .42+    181011 T08  .37+  .12-    181012 246  .29+  .57+    
181011 T08  .30-  .29-    181011 L01  .01-  .12+    181012 246  .34+  .01+    
181011 T08  .24-  .24+    181011 L01  .32+  .20-    181012 246  .41+  .50-    
181011 T08  .11+  .08+    181011 L01  .09-  .20-    181012 246  .28+  .13-    
181011 T08  1.0-  .06+    181011 J95  .11+  .45+    181012 246  .95+  .10-    
181011 T08  .45+  .77-    181011 J95  .09-  .37-    181012 246  .27-  .40-    
181011 T08  .31-  .38+    181011 J95  .08-  .09+    181012 246  .08+  .75+    
181011 T05  .03+  .78-    181011 106  .50+  .58-    181012 A17  .13-  .08+    
181011 T05  .30-  .83+    181011 106  .10+  .40-    181012 A17  .03-  .73-    
181011 T05  .04-  .04+    181011 106  .15-  .56+    
181011 T05  .51+  .24+    181012 H21  .17-  .15-    

Ephemerides (geocentric):
Date (UTC) HH   RA              Dec         delta   r     elong  mag " sig PA
---- -- -- --  -------------   -----------  ------ ------ -----  --- ---- ---
2018 10 12 22  01 46 49.245   +02 50 52.69  .07859 1.0754 170.0 19.7  .26 144
2018 10 12 23  01 46 48.332   +02 44 24.49  .07896 1.0757 169.9 19.7  .26 144
2018 10 13 00  01 46 47.426   +02 37 59.97  .07934 1.0761 169.9 19.7  .26 144
2018 10 13 01  01 46 46.527   +02 31 39.08  .07971 1.0764 169.9 19.7  .26 143
2018 10 13 02  01 46 45.633   +02 25 21.77  .08009 1.0768 169.9 19.7  .26 143
2018 10 13 03  01 46 44.745   +02 19 08.01  .08046 1.0771 169.8 19.7  .26 143
2018 10 13 04  01 46 43.863   +02 12 57.73  .08083 1.0775 169.8 19.7  .26 142
2018 10 13 05  01 46 42.988   +02 06 50.91  .08121 1.0779 169.8 19.7  .27 142
2018 10 13 06  01 46 42.117   +02 00 47.48  .08159 1.0782 169.8 19.8  .27 141
2018 10 13 07  01 46 41.253   +01 54 47.42  .08196 1.0786 169.7 19.8  .27 141
2018 10 13 08  01 46 40.394   +01 48 50.68  .08234 1.0789 169.7 19.8  .27 141
2018 10 13 09  01 46 39.541   +01 42 57.21  .08271 1.0793 169.7 19.8  .27 140
2018 10 13 10  01 46 38.694   +01 37 06.98  .08309 1.0796 169.6 19.8  .27 140
2018 10 13 11  01 46 37.851   +01 31 19.94  .08347 1.0800 169.6 19.8  .27 139
2018 10 13 12  01 46 37.015   +01 25 36.06  .08385 1.0803 169.6 19.8  .27 139
2018 10 13 13  01 46 36.183   +01 19 55.30  .08422 1.0807 169.5 19.8  .28 139
2018 10 13 14  01 46 35.357   +01 14 17.61  .08460 1.0810 169.5 19.8  .28 138
2018 10 13 15  01 46 34.536   +01 08 42.96  .08498 1.0814 169.5 19.9  .28 138
2018 10 13 16  01 46 33.720   +01 03 11.31  .08536 1.0817 169.4 19.9  .28 138
2018 10 13 17  01 46 32.909   +00 57 42.63  .08574 1.0821 169.4 19.9  .28 137
2018 10 13 18  01 46 32.103   +00 52 16.87  .08612 1.0824 169.3 19.9  .28 137
2018 10 13 19  01 46 31.302   +00 46 54.01  .08650 1.0828 169.3 19.9  .28 136
2018 10 13 20  01 46 30.506   +00 41 34.00  .08688 1.0831 169.3 19.9  .28 136
2018 10 13 21  01 46 29.714   +00 36 16.82  .08726 1.0835 169.2 19.9  .28 136
2018 10 13 22  01 46 28.928   +00 31 02.43  .08764 1.0838 169.2 19.9  .28 135
2018 10 13 23  01 46 28.146   +00 25 50.79  .08802 1.0842 169.1 20.0  .29 135
2018 10 14 00  01 46 27.369   +00 20 41.88  .08840 1.0845 169.1 20.0  .29 135
2018 10 14 01  01 46 26.596   +00 15 35.65  .08878 1.0849 169.1 20.0  .29 134
2018 10 14 02  01 46 25.828   +00 10 32.08  .08916 1.0852 169.0 20.0  .29 134
2018 10 14 03  01 46 25.065   +00 05 31.14  .08954 1.0856 169.0 20.0  .29 134
2018 10 14 04  01 46 24.306   +00 00 32.79  .08993 1.0859 168.9 20.0  .29 133
2018 10 14 05  01 46 23.551   -00 04 22.99  .09031 1.0863 168.9 20.0  .29 133
2018 10 14 06  01 46 22.801   -00 09 16.24  .09069 1.0867 168.9 20.0  .29 133
2018 10 14 07  01 46 22.055   -00 14 06.98  .09107 1.0870 168.8 20.0  .29 132
2018 10 14 08  01 46 21.313   -00 18 55.25  .09146 1.0874 168.8 20.1  .29 132
2018 10 14 09  01 46 20.576   -00 23 41.07  .09184 1.0877 168.7 20.1  .30 132
2018 10 14 10  01 46 19.842   -00 28 24.48  .09222 1.0881 168.7 20.1  .30 131
2018 10 14 11  01 46 19.113   -00 33 05.49  .09261 1.0884 168.6 20.1  .30 131
2018 10 14 12  01 46 18.388   -00 37 44.14  .09299 1.0888 168.6 20.1  .30 131
2018 10 14 13  01 46 17.667   -00 42 20.45  .09338 1.0891 168.5 20.1  .30 130
2018 10 14 14  01 46 16.950   -00 46 54.46  .09376 1.0895 168.5 20.1  .30 130
2018 10 14 15  01 46 16.237   -00 51 26.18  .09415 1.0898 168.5 20.1  .30 130
2018 10 14 16  01 46 15.528   -00 55 55.65  .09453 1.0902 168.4 20.1  .30 129
2018 10 14 17  01 46 14.822   -01 00 22.88  .09492 1.0905 168.4 20.2  .30 129
2018 10 14 18  01 46 14.121   -01 04 47.91  .09530 1.0909 168.3 20.2  .30 129
2018 10 14 19  01 46 13.423   -01 09 10.75  .09569 1.0912 168.3 20.2  .30 129
2018 10 14 20  01 46 12.729   -01 13 31.44  .09607 1.0916 168.2 20.2  .31 128
2018 10 14 21  01 46 12.039   -01 17 50.00  .09646 1.0919 168.2 20.2  .31 128